| time (UTC) | temp F | wind direction | speed knots | gust knots | rain 1hr in | rain 24hr in | rain mn in | humidity % | barometer mb |
| 20260504004514 | 49 | 173 | 0.0 | 0.0 | 0.00 | 0.00 | 0.00 | 54 | 1010.2 |
| 20260504003013 | 50 | 173 | 0.0 | 0.0 | 0.00 | 0.00 | 0.00 | 53 | 1009.9 |
| 20260504001513 | 51 | 173 | 0.0 | 0.0 | 0.00 | 0.00 | 0.00 | 49 | 1009.8 |
| 20260504000012 | 52 | 173 | 0.0 | 0.0 | 0.00 | 0.00 | 0.00 | 46 | 1009.6 |
| 20260503234514 | 54 | 173 | 0.0 | 0.0 | 0.00 | 0.00 | 0.00 | 43 | 1009.4 |
| 20260503233011 | 55 | 173 | 0.0 | 4.3 | 0.00 | 0.00 | 0.00 | 42 | 1009.2 |
| 20260503231516 | 56 | 176 | 0.0 | 3.5 | 0.00 | 0.00 | 0.00 | 39 | 1009.1 |
| 20260503230009 | 57 | 200 | 0.9 | 5.2 | 0.00 | 0.00 | 0.00 | 36 | 1009.0 |
| 20260503224508 | 57 | 230 | 0.0 | 3.5 | 0.00 | 0.00 | 0.00 | 36 | 1008.9 |
| 20260503223007 | 57 | 251 | 0.0 | 4.3 | 0.00 | 0.00 | 0.00 | 34 | 1008.7 |
| 20260503221505 | 57 | 269 | 0.0 | 7.0 | 0.00 | 0.00 | 0.00 | 35 | 1008.8 |
| 20260503220006 | 58 | 200 | 0.0 | 8.7 | 0.00 | 0.00 | 0.00 | 33 | 1008.7 |
| 20260503214502 | 58 | 310 | 0.0 | 7.0 | 0.00 | 0.00 | 0.00 | 34 | 1008.8 |
| 20260503213123 | 58 | 134 | 0.0 | 7.8 | 0.00 | 0.00 | 0.00 | 35 | 1008.6 |
| 20260503211618 | 58 | 119 | 0.0 | 9.6 | 0.00 | 0.00 | 0.00 | 36 | 1008.7 |
| 20260503210053 | 59 | 205 | 0.0 | 6.1 | 0.00 | 0.00 | 0.00 | 33 | 1008.7 |
| 20260503204603 | 58 | 324 | 0.9 | 10.4 | 0.00 | 0.00 | 0.00 | 32 | 1008.7 |
| 20260503203049 | 58 | 178 | 0.9 | 11.3 | 0.00 | 0.00 | 0.00 | 32 | 1008.9 |
| 20260503201549 | 57 | 150 | 0.9 | 13.0 | 0.00 | 0.00 | 0.00 | 35 | 1009.0 |
| 20260503200048 | 58 | 360 | 0.0 | 7.0 | 0.00 | 0.00 | 0.00 | 37 | 1009.2 |
| 20260503194544 | 57 | 13 | 0.9 | 11.3 | 0.00 | 0.00 | 0.00 | 36 | 1009.2 |
| 20260503193045 | 56 | 266 | 2.6 | 11.3 | 0.00 | 0.00 | 0.00 | 34 | 1009.4 |
| 20260503191557 | 57 | 312 | 0.9 | 8.7 | 0.00 | 0.00 | 0.00 | 35 | 1009.3 |
| 20260503190045 | 57 | 360 | 4.3 | 13.0 | 0.00 | 0.00 | 0.00 | 35 | 1009.3 |
| 20260503184546 | 56 | 219 | 3.5 | 12.2 | 0.00 | 0.00 | 0.00 | 35 | 1009.4 |
| 20260503183044 | 56 | 148 | 0.9 | 13.9 | 0.00 | 0.00 | 0.00 | 37 | 1009.7 |
| 20260503181537 | 55 | 345 | 4.3 | 15.6 | 0.00 | 0.00 | 0.00 | 38 | 1009.7 |
| 20260503180036 | 55 | 206 | 1.7 | 11.3 | 0.00 | 0.00 | 0.00 | 42 | 1009.8 |
| 20260503174541 | 54 | 240 | 0.9 | 8.7 | 0.00 | 0.00 | 0.00 | 39 | 1010.0 |
| 20260503173031 | 54 | 23 | 2.6 | 11.3 | 0.00 | 0.00 | 0.00 | 43 | 1010.1 |
| 20260503171533 | 52 | 200 | 1.7 | 16.5 | 0.00 | 0.00 | 0.00 | 43 | 1010.2 |
| 20260503081527 | 42 | 5 | 1.7 | 7.8 | 0.00 | 0.01 | 0.00 | 62 | 1009.2 |
| 20260503071516 | 43 | 143 | 0.0 | 0.9 | 0.00 | 0.01 | 0.00 | 66 | 1008.8 |
| 20260503054530 | 45 | 56 | 0.9 | 3.5 | 0.00 | 0.01 | 0.00 | 59 | 1009.0 |
| 20260503053017 | 45 | 19 | 0.0 | 2.6 | 0.00 | 0.01 | 0.00 | 58 | 1009.1 |
| 20260503051513 | 46 | 266 | 0.0 | 5.2 | 0.00 | 0.01 | 0.00 | 57 | 1009.4 |
| 20260503050011 | 46 | 126 | 0.0 | 3.5 | 0.00 | 0.01 | 0.00 | 57 | 1009.4 |
| 20260503044508 | 46 | 347 | 1.7 | 7.8 | 0.00 | 0.01 | 0.00 | 55 | 1009.5 |
| 20260503043006 | 46 | 35 | 0.0 | 2.6 | 0.00 | 0.01 | 0.00 | 55 | 1009.6 |
| 20260503041505 | 46 | 31 | 0.0 | 3.5 | 0.00 | 0.01 | 0.00 | 54 | 1009.7 |
| 20260503040007 | 47 | 185 | 0.0 | 3.5 | 0.00 | 0.01 | 0.00 | 55 | 1009.8 |
| 20260503034600 | 47 | 69 | 0.9 | 4.3 | 0.00 | 0.01 | 0.00 | 54 | 1009.8 |
| 20260503033101 | 47 | 331 | 0.0 | 7.0 | 0.00 | 0.01 | 0.01 | 53 | 1009.8 |
| 20260503031558 | 47 | 5 | 0.0 | 0.0 | 0.00 | 0.01 | 0.01 | 56 | 1009.9 |
| 20260503030056 | 47 | 46 | 0.0 | 0.0 | 0.00 | 0.01 | 0.01 | 59 | 1009.9 |
| 20260503024556 | 47 | 46 | 0.0 | 0.9 | 0.00 | 0.01 | 0.01 | 56 | 1010.0 |
| 20260503023054 | 48 | 36 | 0.0 | 0.0 | 0.00 | 0.01 | 0.01 | 55 | 1009.9 |
| 20260503021554 | 48 | 295 | 0.0 | 0.0 | 0.00 | 0.01 | 0.01 | 53 | 1009.8 |
| 20260503020053 | 49 | 294 | 0.0 | 0.0 | 0.00 | 0.01 | 0.01 | 52 | 1009.9 |
| 20260503014605 | 49 | 286 | 0.0 | 0.9 | 0.00 | 0.01 | 0.01 | 54 | 1009.9 |
| 20260503013052 | 49 | 286 | 0.0 | 0.9 | 0.00 | 0.01 | 0.01 | 49 | 1009.9 |
| 20260503011611 | 49 | 171 | 0.0 | 1.7 | 0.00 | 0.01 | 0.01 | 48 | 1009.8 |
| 20260503010052 | 50 | 42 | 0.0 | 1.7 | 0.00 | 0.01 | 0.01 | 49 | 1009.7 |